• In Hungary
  • List of Countries
  • For 7 days
  • Water Temperature
  • Satellite Maps
  • Weather Map
  • News
  • Weather Widgets
  • user-avatar
    Login

    Hourly Weather Gadow

    Today, 21 October, Sunday

    Time Temperature Precipitation Wind Pressure Humidity
    00:00 +8°C° 0 mm 3 mps 759 mmHg 85%
    01:00 +7°C° 0 mm 2 mps 759 mmHg 89%
    02:00 +7°C° 0 mm 2 mps 759 mmHg 90%
    03:00 +7°C° 0 mm 2 mps 759 mmHg 92%
    04:00 +6°C° 0 mm 2 mps 759 mmHg 94%
    05:00 +7°C° 0 mm 1 mps 759 mmHg 94%
    06:00 +7°C° 0 mm 1 mps 759 mmHg 94%
    07:00 +7°C° 0 mm 1 mps 760 mmHg 92%
    08:00 +8°C° 0 mm 1 mps 760 mmHg 85%
    09:00 +10°C° 0 mm 1 mps 760 mmHg 78%
    10:00 +11°C° 0 mm 1 mps 760 mmHg 70%
    11:00 +12°C° 0 mm 1 mps 760 mmHg 65%
    12:00 +13°C° 0 mm 1 mps 760 mmHg 61%
    13:00 +13°C° 0 mm 1 mps 760 mmHg 56%
    14:00 +13°C° 0 mm 1 mps 760 mmHg 57%
    15:00 +13°C° 0 mm 1 mps 760 mmHg 59%
    16:00 +12°C° 0 mm 1 mps 760 mmHg 60%
    17:00 +11°C° 0 mm 1 mps 760 mmHg 64%
    18:00 +11°C° 0 mm 1 mps 760 mmHg 67%
    19:00 +10°C° 0 mm 1 mps 760 mmHg 70%
    20:00 +9°C° 0 mm 1 mps 760 mmHg 72%
    21:00 +9°C° 0 mm 1 mps 760 mmHg 74%
    22:00 +8°C° 0 mm 1 mps 760 mmHg 75%
    23:00 +8°C° 0 mm 1 mps 760 mmHg 77%

    Tomorrow, 22 October, Monday

    Time Temperature Precipitation Wind Pressure Humidity
    00:00 +7°C° 0 mm 2 mps 760 mmHg 78%
    01:00 +6°C° 0 mm 2 mps 760 mmHg 80%
    02:00 +6°C° 0 mm 2 mps 759 mmHg 81%
    03:00 +6°C° 0 mm 2 mps 759 mmHg 83%
    04:00 +6°C° 0 mm 2 mps 759 mmHg 84%
    05:00 +5°C° 0 mm 2 mps 759 mmHg 85%
    06:00 +5°C° 0 mm 2 mps 759 mmHg 86%
    07:00 +5°C° 0 mm 2 mps 759 mmHg 87%
    08:00 +7°C° 0 mm 2 mps 758 mmHg 80%
    09:00 +9°C° 0 mm 3 mps 758 mmHg 72%
    10:00 +10°C° 0 mm 3 mps 758 mmHg 65%
    11:00 +11°C° 0 mm 4 mps 758 mmHg 62%
    12:00 +12°C° 0 mm 4 mps 757 mmHg 60%
    13:00 +13°C° 0 mm 4 mps 757 mmHg 57%
    14:00 +12°C° 0 mm 4 mps 757 mmHg 61%
    15:00 +12°C° 0 mm 4 mps 756 mmHg 66%
    16:00 +11°C° 0 mm 4 mps 756 mmHg 70%
    17:00 +11°C° 0.5 mm 4 mps 757 mmHg 74%
    18:00 +9°C° 0.5 mm 5 mps 757 mmHg 78%
    19:00 +8°C° 0.5 mm 5 mps 757 mmHg 82%
    20:00 +8°C° 0.1 mm 5 mps 757 mmHg 83%
    21:00 +7°C° 0.1 mm 4 mps 758 mmHg 83%
    22:00 +6°C° 0.1 mm 4 mps 758 mmHg 84%
    23:00 +5°C° 0 mm 4 mps 758 mmHg 84%

    Day after tomorrow, 23 October, Tuesday

    Time Temperature Precipitation Wind Pressure Humidity
    00:00 +5°C° 0 mm 4 mps 758 mmHg 85%
    01:00 +4°C° 0 mm 4 mps 758 mmHg 85%
    02:00 +4°C° 0 mm 4 mps 757 mmHg 85%
    03:00 +4°C° 0 mm 4 mps 757 mmHg 86%
    04:00 +4°C° 0 mm 4 mps 757 mmHg 86%
    05:00 +3°C° 0 mm 5 mps 756 mmHg 85%
    06:00 +3°C° 0 mm 5 mps 755 mmHg 83%
    07:00 +3°C° 0 mm 6 mps 755 mmHg 82%
    08:00 +4°C° 0.4 mm 7 mps 754 mmHg 80%
    09:00 +4°C° 0.4 mm 7 mps 753 mmHg 78%
    10:00 +4°C° 0.4 mm 8 mps 752 mmHg 76%
    11:00 +5°C° 0.6 mm 9 mps 751 mmHg 77%
    12:00 +5°C° 0.6 mm 10 mps 750 mmHg 78%
    13:00 +5°C° 0.6 mm 10 mps 748 mmHg 78%
    14:00 +4°C° 0.8 mm 11 mps 747 mmHg 79%
    15:00 +6°C° 0.8 mm 11 mps 746 mmHg 80%
    16:00 +6°C° 0.8 mm 11 mps 744 mmHg 81%
    17:00 +7°C° 0.7 mm 12 mps 743 mmHg 82%
    18:00 +7°C° 0.7 mm 12 mps 742 mmHg 82%
    19:00 +8°C° 0.7 mm 12 mps 741 mmHg 82%
    20:00 +8°C° 1.3 mm 12 mps 740 mmHg 83%
    21:00 +9°C° 1.3 mm 12 mps 740 mmHg 83%
    22:00 +9°C° 1.3 mm 12 mps 739 mmHg 83%
    23:00 +9°C° 0.9 mm 12 mps 739 mmHg 80%

    24 October, Wednesday

    Time Temperature Precipitation Wind Pressure Humidity
    00:00 +9°C° 0.9 mm 11 mps 738 mmHg 76%
    01:00 +8°C° 0.9 mm 11 mps 738 mmHg 73%
    02:00 +7°C° 0.2 mm 11 mps 739 mmHg 71%
    03:00 +6°C° 0.2 mm 11 mps 739 mmHg 69%
    04:00 +4°C° 0.2 mm 11 mps 740 mmHg 67%
    05:00 +5°C° 0.1 mm 10 mps 741 mmHg 65%
    06:00 +3°C° 0.1 mm 9 mps 742 mmHg 62%
    07:00 +2°C° 0.1 mm 8 mps 743 mmHg 59%
    08:00 +3°C° 0 mm 9 mps 743 mmHg 56%
    09:00 +5°C° 0 mm 10 mps 744 mmHg 52%
    10:00 +6°C° 0 mm 11 mps 744 mmHg 48%
    11:00 +6°C° 0 mm 11 mps 745 mmHg 47%
    12:00 +6°C° 0 mm 11 mps 745 mmHg 46%
    13:00 +7°C° 0 mm 11 mps 746 mmHg 45%
    14:00 +6°C° 0 mm 10 mps 746 mmHg 46%
    15:00 +6°C° 0 mm 9 mps 746 mmHg 47%
    16:00 +6°C° 0 mm 9 mps 747 mmHg 48%
    17:00 +5°C° 0 mm 8 mps 747 mmHg 51%
    18:00 +4°C° 0 mm 7 mps 748 mmHg 53%
    19:00 +4°C° 0 mm 6 mps 748 mmHg 56%
    20:00 +3°C° 0 mm 6 mps 749 mmHg 58%
    21:00 +3°C° 0 mm 6 mps 749 mmHg 61%
    22:00 +3°C° 0 mm 6 mps 749 mmHg 63%
    23:00 +3°C° 0 mm 6 mps 749 mmHg 65%

    25 October, Thursday

    Time Temperature Precipitation Wind Pressure Humidity
    00:00 +2°C° 0 mm 6 mps 749 mmHg 68%
    01:00 +2°C° 0 mm 6 mps 749 mmHg 71%
    02:00 +2°C° 0 mm 5 mps 749 mmHg 75%
    03:00 +2°C° 0 mm 5 mps 748 mmHg 79%
    04:00 +2°C° 0 mm 5 mps 748 mmHg 83%
    05:00 +3°C° 0.4 mm 6 mps 747 mmHg 85%
    06:00 +5°C° 0.4 mm 7 mps 747 mmHg 88%
    07:00 +6°C° 0.4 mm 7 mps 746 mmHg 90%
    08:00 +7°C° 0.4 mm 8 mps 745 mmHg 88%
    09:00 +8°C° 0.4 mm 9 mps 745 mmHg 85%
    10:00 +10°C° 0.4 mm 9 mps 745 mmHg 83%
    11:00 +10°C° 0.1 mm 9 mps 745 mmHg 82%
    12:00 +9°C° 0.1 mm 10 mps 744 mmHg 81%
    13:00 +9°C° 0.1 mm 10 mps 744 mmHg 80%
    14:00 +10°C° 0.2 mm 9 mps 744 mmHg 81%
    15:00 +10°C° 0.2 mm 9 mps 745 mmHg 81%
    16:00 +10°C° 0.2 mm 8 mps 745 mmHg 81%
    17:00 +10°C° 0.2 mm 8 mps 745 mmHg 80%
    18:00 +10°C° 0.2 mm 8 mps 745 mmHg 79%
    19:00 +10°C° 0.2 mm 8 mps 745 mmHg 78%
    20:00 +9°C° 0.1 mm 7 mps 746 mmHg 80%
    21:00 +9°C° 0.1 mm 6 mps 746 mmHg 81%
    22:00 +9°C° 0.1 mm 6 mps 746 mmHg 83%
    23:00 +9°C° 0.2 mm 6 mps 746 mmHg 85%

    26 October, Friday

    Time Temperature Precipitation Wind Pressure Humidity
    00:00 +9°C° 0.2 mm 6 mps 746 mmHg 86%
    01:00 +9°C° 0.2 mm 7 mps 746 mmHg 87%
    02:00 +9°C° 0.2 mm 6 mps 746 mmHg 88%
    03:00 +9°C° 0.2 mm 6 mps 746 mmHg 88%
    04:00 +9°C° 0.2 mm 6 mps 746 mmHg 88%
    05:00 +9°C° 0.1 mm 6 mps 746 mmHg 88%
    06:00 +8°C° 0.1 mm 5 mps 746 mmHg 89%
    07:00 +8°C° 0.1 mm 5 mps 746 mmHg 89%
    08:00 +9°C° 0 mm 5 mps 746 mmHg 86%
    09:00 +9°C° 0 mm 5 mps 746 mmHg 84%
    10:00 +9°C° 0 mm 5 mps 746 mmHg 81%
    11:00 +10°C° 0 mm 5 mps 746 mmHg 77%
    12:00 +12°C° 0 mm 5 mps 745 mmHg 72%
    13:00 +13°C° 0 mm 5 mps 745 mmHg 67%
    14:00 +12°C° 0 mm 5 mps 744 mmHg 68%
    15:00 +12°C° 0 mm 4 mps 744 mmHg 69%
    16:00 +11°C° 0 mm 4 mps 744 mmHg 70%
    17:00 +11°C° 0 mm 3 mps 743 mmHg 73%
    18:00 +10°C° 0 mm 3 mps 743 mmHg 76%
    19:00 +10°C° 0 mm 3 mps 743 mmHg 79%
    20:00 +9°C° 0 mm 3 mps 742 mmHg 81%
    21:00 +9°C° 0 mm 3 mps 742 mmHg 83%
    22:00 +8°C° 0 mm 3 mps 742 mmHg 85%
    23:00 +8°C° 0 mm 3 mps 741 mmHg 86%
    Show more